Terminal Aerodrome Forecast
Issued by NWS

Home | Current Version | Previous Version | Text Only | Print | Product List | Glossary On
Versions: 1 2 3 4 5 6 7 8 9 10 11 12 13 14 15 16 17 18 19 20 21 22 23 24 25 26 27 28
000
FTUS44 KHGX 180813 AAA
TAFUTS
TAF AMD
KUTS 180813Z 1808/1906 VRB03KT P6SM -RA BKN003 OVC015
     FM181000 09003KT 4SM -TSRA BR VCTS OVC005CB
      TEMPO 1812/1816 1SM +TSRA BR BKN005CB OVC012
     FM181600 12008KT 6SM BR VCTS BKN010 OVC020CB PROB30 1819/1824
      TSRA BKN015CB
     FM190300 VRB03KT 4SM BR OVC003=

USA.gov is the U.S. government's official web portal to all federal, state and local government web resources and services.